• Processing (Info)

  • MPEC 2000-L15 : 2000 LL

    The following Minor Planet Electronic Circular may be linked-to from your own Web pages, but must not otherwise be redistributed electronically.

    A form allowing access to any MPEC is at the bottom of this page.


    Read MPEC 2000-L14 Read MPEC 2000-L16


    M.P.E.C. 2000-L15                                Issued 2000 June 3, 18:53 UT
    
         The Minor Planet Electronic Circulars contain information on unusual
             minor planets and routine data on comets.  They are published
       on behalf of Commission 20 of the International Astronomical Union by the
              Minor Planet Center, Smithsonian Astrophysical Observatory,
                              Cambridge, MA 02138, U.S.A.
    
                 Prepared using the Tamkin Foundation Computer Network
    
                 BMARSDEN@CFA.HARVARD.EDU or GWILLIAMS@CFA.HARVARD.EDU
              URL http://cfa-www.harvard.edu/iau/mpc.html  ISSN 1523-6714
    
                                        2000 LL
    
    Observations:
         K00L00L* C2000 06 01.29296 17 46 47.65 +07 28 55.3          17.4        704
         K00L00L  C2000 06 01.30653 17 46 45.34 +07 31 17.2          17.6        704
         K00L00L  C2000 06 01.32007 17 46 43.07 +07 33 38.3          17.9        704
         K00L00L  C2000 06 01.34705 17 46 38.49 +07 38 19.2          17.3        704
         K00L00L  C2000 06 01.87527 17 45 19.40 +09 09 15.0                      557
         K00L00L  C2000 06 01.87598 17 45 19.28 +09 09 22.5                      557
         K00L00L  C2000 06 01.88023 17 45 18.61 +09 10 06.8                      557
         K00L00L  C2000 06 01.89902 17 45 15.80 +09 13 22.2          16.9 V      151
         K00L00L  C2000 06 01.90119 17 45 15.36 +09 13 43.4          16.9 V      151
         K00L00L  C2000 06 01.90336 17 45 15.07 +09 14 05.8          17.3 V      151
         K00L00L  C2000 06 01.90568 17 45 14.71 +09 14 30.1          17.5 V      151
         K00L00L  C2000 06 01.90789 17 45 14.34 +09 14 52.9          17.3 V      151
         K00L00L  C2000 06 01.92736 17 45 10.90 +09 18 13.0          16.3 R      046
         K00L00L  C2000 06 01.92811 17 45 10.78 +09 18 20.7                      046
         K00L00L  C2000 06 01.92890 17 45 10.65 +09 18 28.7          16.4 R      046
         K00L00L  C2000 06 01.92940 17 45 10.57 +09 18 34.0          16.2 R      046
         K00L00L  C2000 06 01.97641 17 45 02.83 +09 26 38.8                      595
         K00L00L  C2000 06 01.98075 17 45 01.92 +09 27 22.4                      118
         K00L00L  C2000 06 01.98196 17 45 01.93 +09 27 36.3          17.0 V      595
         K00L00L  C2000 06 01.98226 17 45 01.67 +09 27 37.8          16.4 R      118
         K00L00L  C2000 06 01.98302 17 45 01.55 +09 27 45.6                      118
         K00L00L  C2000 06 01.98765 17 45 00.95 +09 28 34.8                      595
         K00L00L  C2000 06 02.85073 17 42 49.26 +11 54 31.3                      557
         K00L00L  C2000 06 02.85128 17 42 49.19 +11 54 36.7                      557
         K00L00L  C2000 06 02.85288 17 42 48.92 +11 54 52.8                      557
         K00L00L  C2000 06 02.85341 17 42 48.83 +11 54 58.3                      557
         K00L00L  C2000 06 02.86163 17 42 47.54 +11 56 21.4          16.6 R      046
         K00L00L  C2000 06 02.86377 17 42 47.17 +11 56 43.1          16.4 R      046
         K00L00L  C2000 06 02.86490 17 42 46.99 +11 56 54.1          16.3 R      046
         K00L00L  C2000 06 02.86620 17 42 46.79 +11 57 07.3                      046
         K00L00L  C2000 06 02.92178 17 42 37.83 +12 06 27.3                      587
         K00L00L IC2000 06 02.92542 17 42 37.24 +12 07 03.6                      587
         K00L00L  C2000 06 02.92609 17 42 37.11 +12 07 13.2                      108
         K00L00L  C2000 06 02.92801 17 42 36.78 +12 07 31.3                      108
         K00L00L  C2000 06 02.92924 17 42 36.60 +12 07 42.0          16.5 R      587
         K00L00L  C2000 06 02.93086 17 42 36.30 +12 07 57.6                      108
         K00L00L  C2000 06 02.93196 17 42 36.16 +12 08 05.0          16.6 R      163
         K00L00L  C2000 06 02.93233 17 42 36.09 +12 08 08.2          16.7 R      163
         K00L00L  C2000 06 02.93270 17 42 36.13 +12 08 16.2          17.3 V      108
         K00L00L  C2000 06 02.93308 17 42 36.01 +12 08 16.3          16.8 R      163
         K00L00L  C2000 06 02.93345 17 42 35.95 +12 08 19.3          16.5 R      163
         K00L00L  C2000 06 02.93382 17 42 35.90 +12 08 22.3          16.9 R      163
         K00L00L  C2000 06 02.93494 17 42 35.66 +12 08 34.4          16.6 R      163
         K00L00L  C2000 06 02.96036 17 42 31.31 +12 12 51.7                      611
         K00L00L  C2000 06 02.96157 17 42 31.09 +12 13 03.4                      611
         K00L00L  C2000 06 02.96285 17 42 30.88 +12 13 16.8                      611
         K00L00L  C2000 06 02.96389 17 42 30.73 +12 13 26.7                      611
         K00L00L  C2000 06 02.96591 17 42 30.40 +12 13 47.1                      611
         K00L00L  C2000 06 02.98163 17 42 27.47 +12 16 26.2          15.8 R      540
         K00L00L FC2000 06 02.98394 17 42 27.16 +12 16 47.5                      540
         K00L00L FC2000 06 02.98617 17 42 26.76 +12 17 12.1                      540
         K00L00L  C2000 06 03.00161 17 42 24.23 +12 19 43.2          16.3 R      113
         K00L00L  C2000 06 03.00366 17 42 24.04 +12 20 05.9          17.8 V      151
         K00L00L  C2000 06 03.00369 17 42 23.90 +12 20 03.5          16.4 R      113
         K00L00L  C2000 06 03.00578 17 42 23.52 +12 20 24.2          16.4 R      113
         K00L00L  C2000 06 03.00583 17 42 23.74 +12 20 27.3          17.9 V      151
         K00L00L  C2000 06 03.00786 17 42 23.22 +12 20 44.8          16.2 R      113
         K00L00L  C2000 06 03.01057 17 42 22.96 +12 21 13.8          17.6 V      151
         K00L00L  C2000 06 03.01203 17 42 22.48 +12 21 27.0          16.6 R      113
         K00L00L  C2000 06 03.01337 17 42 22.42 +12 21 42.8          17.6 V      151
         K00L00L  C2000 06 03.01411 17 42 22.13 +12 21 47.2          16.4 R      113
         K00L00L  C2000 06 03.01615 17 42 21.93 +12 22 10.7          17.8 V      151
         K00L00L  C2000 06 03.01619 17 42 21.74 +12 22 08.5          16.6 R      113
         K00L00L  C2000 06 03.01792 17 42 21.62 +12 22 28.2          17.6 V      151
         K00L00L  C2000 06 03.01828 17 42 21.39 +12 22 29.9          16.5 R      113
    
    Observer details:
    046 Klet.  Observers J. Ticha, M. Tichy, Z. Moravec.  0.57-m f/5.2 reflector
        + CCD.
    108 Montelupo.  Observers M. Tombelli, A. Boattini, L. Tesi, D. Guidetti,
        E. Masotti.  Measurers M. Tombelli, A. Boattini, L. Tesi, S. Bartolini,
        G. Forti.  0.30-m f/5.7 Schmidt-Cassegrain + CCD.
    113 Volkssternwarte Drebach, Schoenbrunn.  Observers G. Lehmann, J. Kandler.
        0.50-m f/4.0 reflector + CCD.
    118 Modra.  Observers L. Kornos, S. Gajdos.  0.6-m f/5.5 reflector + CCD.
    151 Eschenberg Observatory, Winterthur.  Observer M. Griesser.  0.25-m f/8.0
        reflector + CCD.
    163 Roeser Observatory, Luxembourg.  Observer M. Dawson.  0.457-m f/4.5
        reflector + CCD.
    540 Linz.  Observers E. Meyer, E. Obermair, M. Stoll.  0.6-m f/3.0 reflector
        + CCD.
    557 Ondrejov.  Observers P. Pravec, P. Kusnirak.  0.65-m f/3.6 reflector + CCD.
    587 Sormano.  Observers F. Manca, G. Ventre.  0.5-m reflector + CCD.
    595 Farra d'Isonzo.  Observers G. Lombardi, A. Toso, A. Olivier.  0.40-m f/4.5
        reflector + CCD.
    611 Starkenburg.  Observers M. Busch, S. Kluegl, R. Stoss, E. Schwab.  0.45-m
        f/4.4 reflector + CCD.
    704 Lincoln Laboratory ETS, New Mexico.  Observers M. Blythe, F. Shelly,
        M. Bezpalko, M. Elowitz, R. Huber, L. Manguso.  Measurers J. Stuart,
        R. Sayer, J. B. Evans.  1.0-m f/2.15 reflector + CCD.
    
    Orbital elements:
    2000 LL
    Epoch 2000 May 16.0 TT = JDT 2451680.5                  Williams
    M 301.74892              (2000.0)            P               Q
    n   0.69643386     Peri.   66.58176     +0.54649052     +0.68466164
    a   1.2605192      Node   245.72808     -0.81919962     +0.55665076
    e   0.1191682      Incl.   31.94038     +0.17395429     +0.47050863
    P   1.42           H   19.1           G   0.15
    From 65 observations 2000 June 1-3.
    
    Ephemeris:
    2000 LL                  a,e,i = 1.26, 0.12, 32                  q = 1.1103
    Date    TT    R. A. (2000) Decl.     Delta      r     Elong.  Phase     V
    2000 05 26    18 01.81   -11 03.3    0.184    1.179   151.9    23.9    16.9
    2000 05 31    17 50.03   +03 42.1    0.180    1.171   148.2    27.2    16.9
    2000 06 05    17 37.20   +17 41.6    0.189    1.163   138.3    35.4    17.3
    2000 06 10    17 24.11   +29 10.6    0.210    1.156   127.7    44.0    17.7
    2000 06 15    17 11.46   +37 47.6    0.238    1.149   118.6    50.9    18.2
    2000 06 20    16 59.77   +44 00.7    0.270    1.142   111.4    55.9    18.6
    2000 06 25    16 49.38   +48 27.1    0.304    1.136   105.6    59.5    18.9
    2000 06 30    16 40.50   +51 37.9    0.338    1.131   101.0    62.0    19.2
    2000 07 05    16 33.27   +53 55.3    0.373    1.126    97.2    63.6    19.5
    
    2000 07 15    16 23.73   +56 48.9    0.437    1.118    91.7    65.3    19.9
    2000 07 25    16 20.00   +58 23.8    0.494    1.113    87.9    65.8    20.1
    2000 08 04    16 21.37   +59 14.5    0.539    1.110    85.4    65.6    20.3
    2000 08 14    16 27.48   +59 39.7    0.573    1.111    84.0    65.1    20.4
    2000 08 24    16 38.11   +59 48.1    0.594    1.114    83.6    64.4    20.5
    2000 09 03    16 53.64   +59 42.8    0.602    1.120    84.1    63.6    20.5
    2000 09 13    17 14.82   +59 24.4    0.597    1.129    85.5    62.7    20.5
    2000 09 23    17 42.56   +58 48.0    0.582    1.140    87.7    61.6    20.4
    2000 10 03    18 18.14   +57 42.0    0.557    1.152    90.9    60.2    20.3
    2000 10 13    19 02.27   +55 46.8    0.527    1.167    94.8    58.4    20.1
    2000 10 23    19 54.14   +52 31.1    0.497    1.183    99.5    56.0    20.0
    2000 11 02    20 50.80   +47 22.3    0.473    1.200   104.3    53.2    19.8
    2000 11 12    21 47.43   +40 13.1    0.464    1.218   108.4    50.4    19.7
    2000 11 22    22 39.70   +31 43.9    0.475    1.237   110.4    48.5    19.8
    2000 12 02    23 25.75   +23 14.6    0.511    1.255   109.8    47.7    19.9
    2000 12 12    00 05.64   +15 55.8    0.570    1.273   107.0    47.7    20.2
    2000 12 22    00 40.38   +10 15.8    0.646    1.291   102.8    48.0    20.5
    2001 01 01    01 11.30   +06 10.4    0.734    1.308    98.2    48.1    20.8
    2001 01 11    01 39.46   +03 21.7    0.830    1.324    93.4    47.8    21.1
    2001 01 21    02 05.69   +01 30.4    0.929    1.339    88.8    47.3    21.4
    2001 01 31    02 30.68   +00 20.6    1.029    1.353    84.4    46.4    21.6
    2001 02 10    02 54.90   -00 20.2    1.126    1.366    80.3    45.4    21.8
    2001 02 20    03 18.70   -00 41.2    1.220    1.377    76.4    44.2    21.9
    2001 03 02    03 42.38   -00 49.5    1.308    1.387    72.7    43.0    22.1
    
    Gareth V. Williams           (C) Copyright 2000 MPC           M.P.E.C. 2000-L15
    

    Read MPEC 2000-L14 Read MPEC 2000-L16


    MPEC number:

    Enter an MPEC number in one of the following forms:

    • 1997-B01 (the full form)
    • J97B01 (the packed version of the full form)
    • B01 (the abbreviated form)